Location: Altenst�hlen
(53.5567°N, 8.9425°E)
Time: 14:20:00
(UTC+00:00)

CZ-2C R/B - Pass Details

Date: 23 October 2019
Orbit: 703 x 909 km, 98.1° (Epoch: 20 November)

Event Time Altitude Azimuth Distance (km) Brightness Sun altitude
Exits shadow 18:48:13 48° 65° (ENE) 1,160 3.5 -23.9°
Drops below altitude 10° 18:53:38 10° 353° (N) 2,541 5.9 -24.7°
Sets 18:56:03 0° 348° (NNW) 3,458 6.7 -25.1°
